Location: Newark
(45.5000°N, 11.4167°E)
Time: 18:46:10
(UTC+00:00)

A-11 Canister half - Pass Details

Date: 20 August 2019
Orbit: 1513 x 1686 km, 47.2° (Epoch: 22 September)

Event Time Altitude Azimuth Distance (km) Brightness Sun altitude
Rises 16:43:58 0° 211° (SSW) 4,663 11.9 14.7°
Reaches altitude 10° 16:47:11 10° 204° (SSW) 3,698 11.4 14.1°
Maximum altitude 16:55:42 41° 138° (SE) 2,131 9.6 12.6°
Drops below altitude 10° 17:04:30 10° 73° (ENE) 3,826 10.6 11.1°
Sets 17:07:52 0° 67° (ENE) 4,840 11.1 10.5°
